Time,TemperatureF,DewpointF,PressureIn,WindDirection,WindDirectionDegrees,WindSpeedMPH,WindSpeedGustMPH,Humidity,HourlyPrecipIn,Conditions,Clouds,dailyrainin,SoftwareType,DateUTC
2013-07-06 00:14:00,48.7,43.0,29.72,SW,226,0.0,2.0,82,0.00,,,0.00,weatherlink.com 1.10,2013-07-06 06:14:00,
2013-07-06 00:29:00,48.7,43.0,29.72,SSW,192,0.0,1.0,82,0.00,,,0.00,weatherlink.com 1.10,2013-07-06 06:29:00,
2013-07-06 00:44:00,49.1,44.0,29.76,ENE,65,2.0,2.0,83,0.00,,,0.00,weatherlink.com 1.10,2013-07-06 06:44:00,
2013-07-06 00:59:00,48.9,45.0,29.75,SE,134,1.0,3.0,86,0.00,,,0.00,weatherlink.com 1.10,2013-07-06 06:59:00,
2013-07-06 01:14:00,48.1,45.0,29.73,SE,134,0.0,0.0,88,0.00,,,0.00,weatherlink.com 1.10,2013-07-06 07:14:00,
2013-07-06 01:29:00,47.6,45.0,29.72,SE,134,0.0,0.0,89,0.00,,,0.00,weatherlink.com 1.10,2013-07-06 07:29:00,
2013-07-06 01:44:00,47.1,45.0,29.73,SE,135,0.0,0.0,91,0.00,,,0.00,weatherlink.com 1.10,2013-07-06 07:44:00,
2013-07-06 01:59:00,46.9,45.0,29.75,SE,134,0.0,0.0,91,0.00,,,0.00,weatherlink.com 1.10,2013-07-06 07:59:00,
2013-07-06 02:14:00,47.1,45.0,29.74,SE,134,0.0,0.0,91,0.00,,,0.00,weatherlink.com 1.10,2013-07-06 08:14:00,
2013-07-06 02:29:00,46.7,44.0,29.73,SE,134,0.0,0.0,91,0.01,,,0.01,weatherlink.com 1.10,2013-07-06 08:29:00,
2013-07-06 02:44:00,46.0,44.0,29.73,SE,134,0.0,0.0,92,0.01,,,0.01,weatherlink.com 1.10,2013-07-06 08:44:00,
2013-07-06 02:59:00,45.3,43.0,29.74,SE,134,0.0,1.0,92,0.01,,,0.01,weatherlink.com 1.10,2013-07-06 08:59:00,
2013-07-06 03:15:00,44.9,43.0,29.75,SE,134,0.0,0.0,93,0.01,,,0.01,weatherlink.com 1.10,2013-07-06 09:15:00,
2013-07-06 03:30:00,44.8,43.0,29.75,SE,134,0.0,0.0,94,0.00,,,0.01,weatherlink.com 1.10,2013-07-06 09:30:00,
2013-07-06 03:45:00,44.8,43.0,29.76,SE,134,0.0,0.0,93,0.00,,,0.01,weatherlink.com 1.10,2013-07-06 09:45:00,
2013-07-06 04:00:00,44.9,43.0,29.75,SW,216,0.0,0.0,93,0.00,,,0.01,weatherlink.com 1.10,2013-07-06 10:00:00,
2013-07-06 04:15:00,44.6,43.0,29.77,SW,216,0.0,0.0,93,0.00,,,0.01,weatherlink.com 1.10,2013-07-06 10:15:00,
2013-07-06 04:30:00,44.2,43.0,29.76,SW,216,0.0,0.0,94,0.00,,,0.01,weatherlink.com 1.10,2013-07-06 10:30:00,
2013-07-06 04:45:00,44.1,43.0,29.76,SW,216,0.0,0.0,94,0.00,,,0.01,weatherlink.com 1.10,2013-07-06 10:45:00,
2013-07-06 05:00:00,43.9,43.0,29.75,SW,215,0.0,0.0,95,0.00,,,0.01,weatherlink.com 1.10,2013-07-06 11:00:00,
2013-07-06 05:15:00,43.8,43.0,29.75,SW,215,0.0,0.0,95,0.00,,,0.01,weatherlink.com 1.10,2013-07-06 11:15:00,
2013-07-06 05:30:00,43.9,43.0,29.75,SW,215,0.0,0.0,95,0.00,,,0.01,weatherlink.com 1.10,2013-07-06 11:30:00,
2013-07-06 05:45:00,43.9,43.0,29.75,SW,216,0.0,0.0,95,0.00,,,0.01,weatherlink.com 1.10,2013-07-06 11:45:00,
2013-07-06 06:00:00,43.8,43.0,29.75,SW,216,0.0,0.0,95,0.00,,,0.01,weatherlink.com 1.10,2013-07-06 12:00:00,
2013-07-06 06:15:00,43.7,42.0,29.76,SW,216,0.0,0.0,94,0.00,,,0.01,weatherlink.com 1.10,2013-07-06 12:15:00,
2013-07-06 06:30:00,43.7,42.0,29.76,SW,216,0.0,0.0,94,0.00,,,0.01,weatherlink.com 1.10,2013-07-06 12:30:00,
2013-07-06 06:45:00,44.0,42.0,29.75,SW,216,0.0,0.0,94,0.00,,,0.01,weatherlink.com 1.10,2013-07-06 12:45:00,
2013-07-06 07:00:00,44.6,43.0,29.75,SW,215,0.0,0.0,94,0.00,,,0.01,weatherlink.com 1.10,2013-07-06 13:00:00,
2013-07-06 07:15:00,45.5,44.0,29.75,SW,216,0.0,0.0,94,0.00,,,0.01,weatherlink.com 1.10,2013-07-06 13:15:00,
2013-07-06 07:30:00,47.1,45.0,29.74,SE,127,0.0,0.0,92,0.00,,,0.01,weatherlink.com 1.10,2013-07-06 13:30:00,
2013-07-06 07:46:00,49.0,46.0,29.74,West,266,1.0,3.0,88,0.00,,,0.01,weatherlink.com 1.10,2013-07-06 13:46:00,
2013-07-06 08:00:00,50.2,46.0,29.75,West,269,0.0,1.0,85,0.00,,,0.01,weatherlink.com 1.10,2013-07-06 14:00:00,
2013-07-06 08:15:00,51.5,45.0,29.75,SSW,204,0.0,3.0,77,0.00,,,0.01,weatherlink.com 1.10,2013-07-06 14:15:00,
2013-07-06 08:30:00,52.8,44.0,29.74,NW,307,1.0,4.0,71,0.00,,,0.01,weatherlink.com 1.10,2013-07-06 14:30:00,
2013-07-06 08:45:00,54.3,45.0,29.74,West,277,3.0,6.0,70,0.00,,,0.01,weatherlink.com 1.10,2013-07-06 14:45:00,
2013-07-06 09:00:00,55.4,43.0,29.74,WNW,297,2.0,7.0,64,0.00,,,0.01,weatherlink.com 1.10,2013-07-06 15:00:00,
2013-07-06 09:15:00,56.7,43.0,29.74,WNW,302,3.0,6.0,61,0.00,,,0.01,weatherlink.com 1.10,2013-07-06 15:15:00,
2013-07-06 09:30:00,57.9,42.0,29.74,SE,124,3.0,8.0,56,0.00,,,0.01,weatherlink.com 1.10,2013-07-06 15:30:00,
2013-07-06 09:45:00,59.4,41.0,29.74,WSW,255,0.0,6.0,50,0.00,,,0.01,weatherlink.com 1.10,2013-07-06 15:45:00,
2013-07-06 10:01:00,60.5,40.0,29.75,SE,130,2.0,8.0,48,0.00,,,0.01,weatherlink.com 1.10,2013-07-06 16:01:00,
2013-07-06 10:46:00,62.6,41.0,29.75,NW,304,2.0,9.0,46,0.00,,,0.01,weatherlink.com 1.10,2013-07-06 16:46:00,
2013-07-06 11:01:00,63.2,43.0,29.74,NNE,13,0.0,9.0,48,0.00,,,0.01,weatherlink.com 1.10,2013-07-06 17:01:00,
2013-07-06 11:16:00,64.6,41.0,29.74,West,268,0.0,8.0,43,0.00,,,0.01,weatherlink.com 1.10,2013-07-06 17:16:00,
2013-07-06 11:31:00,66.2,42.0,29.74,West,280,3.0,14.0,42,0.00,,,0.01,weatherlink.com 1.10,2013-07-06 17:31:00,
2013-07-06 11:46:00,66.3,40.0,29.74,West,266,0.0,9.0,39,0.00,,,0.01,weatherlink.com 1.10,2013-07-06 17:46:00,
2013-07-06 12:16:00,66.6,43.0,29.74,WNW,297,0.0,7.0,42,0.00,,,0.01,weatherlink.com 1.10,2013-07-06 18:16:00,
2013-07-06 12:31:00,66.5,42.0,29.74,West,281,3.0,8.0,41,0.00,,,0.01,weatherlink.com 1.10,2013-07-06 18:31:00,
2013-07-06 12:46:00,65.1,42.0,29.74,WNW,286,1.0,8.0,43,0.00,,,0.01,weatherlink.com 1.10,2013-07-06 18:46:00,
2013-07-06 13:01:00,64.3,41.0,29.74,West,278,4.0,9.0,43,0.00,,,0.01,weatherlink.com 1.10,2013-07-06 19:01:00,
2013-07-06 13:16:00,64.9,43.0,29.75,WNW,288,2.0,4.0,45,0.00,,,0.01,weatherlink.com 1.10,2013-07-06 19:16:00,
2013-07-06 13:31:00,65.6,42.0,29.74,WNW,294,6.0,7.0,42,0.00,,,0.01,weatherlink.com 1.10,2013-07-06 19:31:00,
2013-07-06 14:01:00,63.4,42.0,29.73,West,276,4.0,7.0,45,0.00,,,0.01,weatherlink.com 1.10,2013-07-06 20:01:00,
2013-07-06 14:16:00,66.7,42.0,29.73,West,276,2.0,6.0,40,0.00,,,0.01,weatherlink.com 1.10,2013-07-06 20:16:00,
2013-07-06 14:31:00,67.0,42.0,29.72,WNW,293,2.0,9.0,40,0.00,,,0.01,weatherlink.com 1.10,2013-07-06 20:31:00,
2013-07-06 14:46:00,68.7,43.0,29.72,West,267,1.0,9.0,40,0.00,,,0.01,weatherlink.com 1.10,2013-07-06 20:46:00,
2013-07-06 15:01:00,64.9,43.0,29.72,West,281,1.0,13.0,46,0.00,,,0.01,weatherlink.com 1.10,2013-07-06 21:01:00,
2013-07-06 16:01:00,65.3,44.0,29.70,SE,131,0.0,6.0,46,0.00,,,0.01,weatherlink.com 1.10,2013-07-06 22:01:00,
2013-07-06 16:31:00,65.9,43.0,29.69,WSW,255,0.0,5.0,43,0.00,,,0.01,weatherlink.com 1.10,2013-07-06 22:31:00,
2013-07-06 17:01:00,66.9,43.0,29.69,WNW,287,0.0,7.0,42,0.00,,,0.01,weatherlink.com 1.10,2013-07-06 23:01:00,
2013-07-06 17:16:00,66.2,42.0,29.68,WNW,285,0.0,9.0,41,0.00,,,0.01,weatherlink.com 1.10,2013-07-06 23:16:00,
2013-07-06 17:31:00,65.5,42.0,29.67,SSE,158,0.0,2.0,43,0.00,,,0.01,weatherlink.com 1.10,2013-07-06 23:31:00,
2013-07-06 17:46:00,67.1,41.0,29.67,NW,314,0.0,7.0,39,0.00,,,0.01,weatherlink.com 1.10,2013-07-06 23:46:00,
2013-07-06 18:31:00,65.8,43.0,29.68,WNW,295,0.0,7.0,43,0.00,,,0.01,weatherlink.com 1.10,2013-07-07 00:31:00,
2013-07-06 18:46:00,63.3,43.0,29.70,SSE,158,1.0,5.0,48,0.00,,,0.01,weatherlink.com 1.10,2013-07-07 00:46:00,
2013-07-06 19:01:00,61.7,44.0,29.70,SSW,213,1.0,2.0,52,0.00,,,0.01,weatherlink.com 1.10,2013-07-07 01:01:00,
2013-07-06 19:32:00,59.2,44.0,29.70,West,259,1.0,1.0,58,0.00,,,0.01,weatherlink.com 1.10,2013-07-07 01:32:00,
2013-07-06 19:47:00,58.4,44.0,29.70,WSW,239,0.0,3.0,59,0.00,,,0.01,weatherlink.com 1.10,2013-07-07 01:47:00,
2013-07-06 20:47:00,55.6,45.0,29.72,WNW,283,0.0,1.0,67,0.00,,,0.01,weatherlink.com 1.10,2013-07-07 02:47:00,
2013-07-06 21:17:00,54.9,45.0,29.74,West,275,0.0,3.0,69,0.00,,,0.01,weatherlink.com 1.10,2013-07-07 03:17:00,
2013-07-06 21:47:00,53.2,45.0,29.76,SSE,151,0.0,1.0,73,0.00,,,0.01,weatherlink.com 1.10,2013-07-07 03:47:00,
2013-07-06 22:02:00,52.8,45.0,29.76,West,269,0.0,2.0,74,0.00,,,0.01,weatherlink.com 1.10,2013-07-07 04:02:00,
2013-07-06 22:17:00,52.4,45.0,29.77,SE,146,0.0,2.0,75,0.00,,,0.01,weatherlink.com 1.10,2013-07-07 04:17:00,
2013-07-06 22:32:00,52.0,44.0,29.77,SE,144,0.0,1.0,75,0.00,,,0.01,weatherlink.com 1.10,2013-07-07 04:32:00,
2013-07-06 22:47:00,51.5,44.0,29.77,WSW,238,0.0,1.0,76,0.00,,,0.01,weatherlink.com 1.10,2013-07-07 04:47:00,
2013-07-06 23:02:00,51.2,44.0,29.77,WSW,237,0.0,1.0,76,0.00,,,0.01,weatherlink.com 1.10,2013-07-07 05:02:00,
2013-07-06 23:17:00,50.8,44.0,29.76,WSW,237,0.0,0.0,76,0.00,,,0.01,weatherlink.com 1.10,2013-07-07 05:17:00,
2013-07-06 23:32:00,50.3,43.0,29.76,SW,225,0.0,1.0,77,0.00,,,0.01,weatherlink.com 1.10,2013-07-07 05:32:00,
2013-07-06 23:47:00,49.6,43.0,29.76,SW,226,0.0,0.0,78,0.00,,,0.01,weatherlink.com 1.10,2013-07-07 05:47:00,